Regional Weather Roundup
Issued by NWS

Home | Current Version | Previous Version | Graphics & Text | Print | Product List | Glossary On
Versions: 1 2 3 4 5 6 7 8 9 10 11 12 13 14 15 16 17 18 19 20 21 22 23 24 25 26 27 28 29 30 31 32 33 34 35 36 37 38 39 40 41 42 43 44 45 46 47 48 49 50
000
ASUS44 KMEG 262110
RWRTN
TENNESSEE HOURLY STATE WEATHER ROUNDUP
NATIONAL WEATHER SERVICE MEMPHIS TN
400 PM CDT THU MAR 26 2015

TNZ002-004-019-021-049-052-054-088>092-262200-
WEST TENNESSEE

CITY           SKY/WX    TMP DP  RH WIND       PRES   REMARKS
MEMPHIS INTL   CLOUDY    49  42  77 N12       29.98S
NWS MEMPHIS      N/A     47 N/A N/A MISG        N/A
JACKSON        CLOUDY    46  42  86 N18G26    29.98R
DYERSBURG      CLOUDY    45  32  61 N9G16     30.00F
UNION CITY     CLOUDY    39  39 100 N7        29.97F WCI  34
PARIS          CLOUDY    41  39  93 N10       29.97F
LEXINGTON      CLOUDY    45  43  93 N8        29.93R
SAVANNAH       CLOUDY    48  48 100 N16       29.93R
$$

TNZ008-025-027-028-033-062-065-066-262200-
NORTH MIDDLE TENNESSEE

CITY           SKY/WX    TMP DP  RH WIND       PRES   REMARKS
NASHVILLE      LGT RAIN  48  45  89 N16G23    29.90R
CLARKSVILLE    LGT RAIN  44  41  89 N20       29.96S
SMYRNA         CLOUDY    50  46  85 N17       29.89S
COOKEVILLE     CLOUDY    54  50  87 VRB7      29.83R
CROSSVILLE     CLOUDY    56  52  86 NW16G24   29.81R FOG
$$

TNZ061-075-076-078-094-096-097-262200-
SOUTH MIDDLE TENNESSEE

CITY           SKY/WX    TMP DP  RH WIND       PRES   REMARKS
FAYETTEVILLE   PTSUNNY   57  52  82 N17       29.81R
TULLAHOMA      CLOUDY    54  48  82 N15       29.84R
WINCHESTER     PTSUNNY   68  57  68 N17G25    29.79S
MCMINNVILLE    PTSUNNY   55  52  88 N13       29.84R
COLUMBIA       CLOUDY   N/A N/A N/A N10       29.89R
SHELBYVILLE    CLOUDY    54  50  87 N13       29.88R
$$

TNZ017-018-042-046-047-262200-
NORTHEAST TENNESSEE

CITY           SKY/WX    TMP DP  RH WIND       PRES   REMARKS
TRI CITIES     CLOUDY    73  49  42 SW18      29.72F
ELIZABETHTON   CLEAR     72  52  49 W8        29.73F
$$

TNZ012-013-036-069-073-074-262200-
CENTRAL EAST TENNESSEE

CITY           SKY/WX    TMP DP  RH WIND       PRES   REMARKS
KNOXVILLE      CLOUDY    74  50  42 SW23      29.71F
OAK RIDGE      LGT RAIN  74  51  44 SW9G21    29.73F
GATLINBURG     CLEAR     75  45  33 W15       29.71F
MORRISTOWN     CLEAR     73  50  43 SW18      29.71F
$$

TNZ083-085-099-262200-
SOUTHEAST TENNESSEE

CITY           SKY/WX    TMP DP  RH WIND       PRES   REMARKS
CHATTANOOGA    CLOUDY    75  49  39 SW13      29.76F
$$

SKY/WX REPORTED AS FAIR MEANS FEW OR NO CLOUDS BELOW
12 THOUSAND FEET.




USA.gov is the U.S. government's official web portal to all federal, state and local government web resources and services.